Location: Musselshell
(46.5176°N, 108.0911°W)
Time: 02:05:49
(UTC+00:00)

AO-91 - Visible Passes

Search period start: 26 June 2022 00:00
Search period end: 06 July 2022 00:00
Orbit: 450 x 799 km, 97.7° (Epoch: 25 June)

Date Brightness Start Highest point End Pass type
(mag) Time Alt. Az. Time Alt. Az. Time Alt. Az.
26 Jun ? 05:49:55 10° NNE 05:53:25 51° E 05:53:55 46° SE visible
26 Jun ? 07:27:49 10° NW 07:29:11 12° WNW 07:30:32 10° W visible
27 Jun ? 06:08:35 10° NNE 06:12:09 89° W 06:12:47 57° SSW visible
28 Jun ? 04:53:39 10° E 04:54:07 10° E 04:54:23 10° E visible
28 Jun ? 06:27:23 10° N 06:30:48 50° WNW 06:31:39 39° WSW visible
29 Jun ? 05:10:41 10° NE 05:13:00 17° E 05:13:15 17° E visible
29 Jun ? 06:46:20 10° N 06:49:25 29° WNW 06:50:31 24° WSW visible
30 Jun ? 05:28:50 10° NE 05:31:50 27° E 05:32:06 27° ESE visible
30 Jun ? 07:05:29 10° NNW 07:07:58 19° WNW 07:09:22 15° W visible
01 Jul ? 05:47:16 10° NNE 05:50:36 47° E 05:50:57 45° ESE visible
01 Jul ? 07:25:07 10° NW 07:26:28 12° WNW 07:27:46 10° W visible
02 Jul ? 06:05:52 10° NNE 06:09:18 85° E 06:09:48 63° S visible
03 Jul ? 06:24:37 10° N 06:27:57 53° WNW 06:28:39 43° WSW visible
04 Jul ? 05:08:01 10° NE 05:10:08 16° E 05:10:14 16° E visible
04 Jul ? 06:43:31 10° N 06:46:33 31° WNW 06:47:30 26° WSW visible
05 Jul ? 05:26:04 10° NE 05:28:56 25° E 05:29:04 25° E visible
05 Jul ? 07:02:36 10° NNW 07:05:06 19° WNW 07:06:20 16° W visible
